TimeCST,TemperatureF,Dew PointF,Humidity,Sea Level PressureIn,VisibilityMPH,Wind Direction,Wind SpeedMPH,Gust SpeedMPH,PrecipitationIn,Events,Conditions,WindDirDegrees,DateUTC
12:54 AM,69.1,57.0,65,30.08,10.0,SSW,15.0,21.9,N/A,,Mostly Cloudy,200,2012-12-04 06:54:00
1:54 AM,68.0,57.0,68,30.09,10.0,South,11.5,-,N/A,,Overcast,190,2012-12-04 07:54:00
2:54 AM,68.0,57.9,70,30.08,10.0,South,12.7,20.7,N/A,,Scattered Clouds,190,2012-12-04 08:54:00
3:45 AM,66.2,59.0,78,30.09,10.0,SSW,12.7,-,N/A,,Mostly Cloudy,210,2012-12-04 09:45:00
3:54 AM,66.2,59.0,78,30.09,10.0,SSW,11.5,-,N/A,,Mostly Cloudy,210,2012-12-04 09:54:00
4:31 AM,66.2,59.0,78,30.09,10.0,SSW,12.7,21.9,N/A,,Overcast,210,2012-12-04 10:31:00
4:54 AM,66.9,60.1,79,30.09,10.0,SSW,11.5,-,N/A,,Overcast,200,2012-12-04 10:54:00
5:54 AM,66.9,61.0,81,30.09,10.0,SSW,12.7,19.6,N/A,,Mostly Cloudy,200,2012-12-04 11:54:00
6:54 AM,66.9,61.0,81,30.11,10.0,SSW,12.7,-,N/A,,Overcast,200,2012-12-04 12:54:00
7:54 AM,68.0,62.1,81,30.12,10.0,South,16.1,-,N/A,,Mostly Cloudy,190,2012-12-04 13:54:00
8:54 AM,68.0,62.1,81,30.14,10.0,SSW,11.5,18.4,N/A,,Overcast,200,2012-12-04 14:54:00
9:54 AM,69.1,62.1,78,30.15,10.0,SSW,11.5,20.7,N/A,,Overcast,210,2012-12-04 15:54:00
10:54 AM,70.0,62.1,76,30.14,10.0,WSW,12.7,21.9,N/A,,Overcast,240,2012-12-04 16:54:00
11:30 AM,66.2,59.0,78,30.15,10.0,North,16.1,34.5,N/A,,Overcast,350,2012-12-04 17:30:00
11:39 AM,62.6,57.2,82,30.15,7.0,North,11.5,-,0.02,Rain,Light Rain,360,2012-12-04 17:39:00
11:54 AM,62.1,57.9,86,30.16,2.0,West,9.2,19.6,0.02,Rain,Light Rain,280,2012-12-04 17:54:00
11:57 AM,62.6,57.2,82,30.15,0.8,NW,8.1,19.6,0.03,Rain,Heavy Rain,310,2012-12-04 17:57:00
12:07 PM,60.8,57.2,88,30.15,2.5,North,6.9,-,0.10,Rain,Light Rain,350,2012-12-04 18:07:00
12:09 PM,60.8,57.2,88,30.15,5.0,North,8.1,-,0.10,Rain,Light Rain,10,2012-12-04 18:09:00
12:54 PM,62.1,57.9,86,30.13,4.0,SW,4.6,-,0.15,Rain,Light Rain,220,2012-12-04 18:54:00
1:54 PM,61.0,59.0,93,30.14,5.0,Calm,Calm,-,0.08,Rain,Rain,0,2012-12-04 19:54:00
2:54 PM,61.0,57.9,90,30.14,10.0,SSW,3.5,-,0.03,,Overcast,210,2012-12-04 20:54:00
3:54 PM,61.0,57.9,90,30.13,10.0,South,6.9,-,0.02,Rain,Light Rain,190,2012-12-04 21:54:00
4:49 PM,60.8,57.2,88,30.11,10.0,South,3.5,-,0.03,Rain,Light Rain,180,2012-12-04 22:49:00
4:54 PM,60.1,57.0,90,30.11,10.0,Calm,Calm,-,0.03,Rain,Light Rain,0,2012-12-04 22:54:00
5:32 PM,60.8,57.2,88,30.15,10.0,NW,10.4,-,0.00,,Overcast,320,2012-12-04 23:32:00
5:50 PM,60.8,57.2,88,30.16,10.0,NNW,5.8,-,0.00,,Overcast,330,2012-12-04 23:50:00
5:54 PM,59.0,57.0,93,30.15,10.0,North,5.8,-,0.00,,Overcast,350,2012-12-04 23:54:00
6:51 PM,59.0,57.2,94,30.18,10.0,Calm,Calm,-,N/A,,Overcast,0,2012-12-05 00:51:00
6:54 PM,59.0,57.0,93,30.17,10.0,Variable,4.6,-,N/A,,Overcast,0,2012-12-05 00:54:00
7:35 PM,60.8,57.2,88,30.20,10.0,Calm,Calm,-,N/A,,Overcast,0,2012-12-05 01:35:00
7:54 PM,60.1,57.0,90,30.21,10.0,NNW,4.6,-,N/A,,Overcast,330,2012-12-05 01:54:00
8:54 PM,57.0,54.0,89,30.20,6.0,North,10.4,-,N/A,,Overcast,10,2012-12-05 02:54:00
9:54 PM,55.0,52.0,89,30.21,5.0,North,10.4,-,N/A,,Overcast,10,2012-12-05 03:54:00
10:54 PM,54.0,52.0,93,30.21,5.0,NNE,10.4,-,N/A,,Overcast,20,2012-12-05 04:54:00
11:19 PM,55.4,51.8,88,30.23,0.5,NNE,10.4,-,N/A,Fog,Fog,20,2012-12-05 05:19:00
11:40 PM,55.4,53.6,94,30.23,1.0,NNE,6.9,-,N/A,,Overcast,20,2012-12-05 05:40:00
11:54 PM,55.0,53.1,93,30.23,1.0,NNE,9.2,-,N/A,,Overcast,20,2012-12-05 05:54:00
11:57 PM,55.4,53.6,94,30.23,3.0,NNE,9.2,-,N/A,,Overcast,20,2012-12-05 05:57:00